This is the latest recevied weather packets stored in our database for station/object KC5CAM-13. If no packets are shown the sender has not sent any weather packets the latest 10 day(s).
| Time | Temp. | Humidity | Pressure | Rain* | Wind** | Luminosity | Snow |
|---|---|---|---|---|---|---|---|
| 1777317955 | 33.33° C | 41% | 1009.1 hPa | 0 mm | - | 713 W/m² | - |
| 1777317653 | 32.78° C | 44% | 1008.7 hPa | 0 mm | - | 706 W/m² | - |
| 1777317344 | 32.22° C | 47% | 1008.8 hPa | 0 mm | - | 717 W/m² | - |
| 1777317039 | 32.78° C | 47% | 1008.6 hPa | 0 mm | - | 726 W/m² | - |
| 1777316737 | 32.78° C | 47% | 1008.8 hPa | 0 mm | - | 737 W/m² | - |
| 1777316432 | 33.33° C | 46% | 1009 hPa | 0 mm | - | 718 W/m² | - |
| 1777316130 | 32.78° C | 48% | 1008.8 hPa | 0 mm | - | 730 W/m² | - |
| 1777315828 | 32.78° C | 44% | 1008.9 hPa | 0 mm | - | 744 W/m² | - |
| 1777315527 | 32.78° C | 52% | 1008.9 hPa | 0 mm | - | 737 W/m² | - |
| 1777315224 | 32.78° C | 49% | 1009 hPa | 0 mm | - | 702 W/m² | - |
| 1777314921 | 32.22° C | 45% | 1008.8 hPa | 0 mm | - | 720 W/m² | - |
| 1777314616 | 32.22° C | 50% | 1008.9 hPa | 0 mm | - | 723 W/m² | - |
| 1777314314 | 32.78° C | 52% | 1008.8 hPa | 0 mm | - | 756 W/m² | - |
| 1777314011 | 32.22° C | 48% | 1009 hPa | 0 mm | - | 757 W/m² | - |
| 1777313708 | 32.22° C | 53% | 1009 hPa | 0 mm | - | 750 W/m² | - |
| 1777313406 | 31.67° C | 56% | 1008.9 hPa | 0 mm | - | 745 W/m² | - |
| 1777313102 | 31.67° C | 57% | 1008.9 hPa | 0 mm | - | 745 W/m² | - |
| 1777312798 | 31.67° C | 55% | 1008.9 hPa | 0 mm | - | 758 W/m² | - |
| 1777312495 | 31.67° C | 58% | 1008.8 hPa | 0 mm | - | 701 W/m² | - |
| 1777312192 | 31.67° C | 57% | 1008.8 hPa | 0 mm | - | 723 W/m² | - |
| 1777311889 | 31.11° C | 59% | 1008.9 hPa | 0 mm | - | 723 W/m² | - |
| 1777311586 | 31.11° C | 62% | 1008.9 hPa | 0 mm | - | 717 W/m² | - |
| 1777311284 | 31.11° C | 60% | 1008.9 hPa | 0 mm | - | 703 W/m² | - |
| 1777310981 | 31.11° C | 63% | 1009 hPa | 0 mm | - | 707 W/m² | - |
| 1777310679 | 30.56° C | 63% | 1008.8 hPa | 0 mm | - | 749 W/m² | - |
* Rain latest hour (hover to see other rain measurements)
** Current wind speed in m/s (hover to see current wind gust speed)